This demonstration page uses our WeatherBlox Daily Observations layout. Learn more.

Left ArrowRight Arrow

Hourly Observations for May 20, 2021

Temp ( °F °C ) Dew Point ( °F °C ) Humidity (%) Winds ( mph kmh ) Pressure ( in mb ) Visibility ( mi km ) Precip ( " mm )
12:30 am 00:30 Partly Cloudy 61 16 61 16 100 100 SSE 10 17 29.89 1012 10 16 0.00 0.00
12:45 am 00:45 Mostly Cloudy 61 16 61 16 100 100 SSE 10 17 29.89 1012 10 16 0.00 0.00
12:56 am 00:56 Cloudy 61 16.1 60 15.6 97 97 SSE 10 17 29.90 1012 10 16 0.00 0.00
1:56 am 01:56 Cloudy 62 16.7 60 15.6 93 93 S 13 20 29.88 1012 10 16 0.00 0.00
2:18 am 02:18 Cloudy 61 16 61 16 100 100 S 10 17 29.87 1011 10 16 0.00 0.00
2:56 am 02:56 Cloudy 61 16.1 60 15.6 97 97 SSE 9 15 29.88 1012 10 16 0.00 0.00
3:32 am 03:32 Cloudy 63 17 61 16 94 94 SSE 10 17 29.87 1012 10 16 0.00 0.00
3:56 am 03:56 Cloudy 62 16.7 60 15.6 93 93 S 14 22 29.87 1012 10 16 0.00 0.00
4:10 am 04:10 Cloudy 63 17 61 16 94 94 S 10 17 29.87 1012 10 16 0.00 0.00
4:56 am 04:56 Cloudy 62 16.7 60 15.6 93 93 S 9 15 29.89 1012 10 16 0.00 0.00
5:23 am 05:23 Cloudy 63 17 61 16 94 94 SSE 8 13 29.88 1012 10 16 0.00 0.00
5:56 am 05:56 Cloudy 62 16.7 60 15.6 93 93 S 9 15 29.89 1012 10 16 0.00 0.00
6:45 am 06:45 Cloudy 61 16 61 16 100 100 S 12 19 29.90 1012 10 16 0.00 0.00
6:56 am 06:56 Cloudy 61 16.1 60 15.6 97 97 S 12 19 29.90 1013 10 16 0.00 0.00
7:49 am 07:49 Cloudy with Mist and Fog 61 16 61 16 100 100 SSE 9 15 29.90 1012 5 8 0.00 0.00
7:56 am 07:56 Cloudy with Mist and Fog 61 16.1 60 15.6 97 97 SSE 7 11 29.91 1013 3 5 0.00 0.00
8:56 am 08:56 Cloudy 62 16.7 61 16.1 96 96 SSE 13 20 29.92 1013 10 16 0.00 0.00
9:33 am 09:33 Cloudy 63 17 61 16 94 94 SSE 17 28 29.89 1012 10 16 0.00 0.00
9:56 am 09:56 Cloudy 63 17.2 61 16.1 93 93 SSE 15 24 29.91 1013 10 16 0.00 0.00
10:25 am 10:25 Mostly Cloudy 66 19 61 16 83 83 SSE 14 22 29.87 1012 10 16 0.00 0.00
10:54 am 10:54 Cloudy 66 19 63 17 88 88 SSE 17 28 29.86 1011 10 16 0.00 0.00
10:56 am 10:56 Cloudy 67 19.4 62 16.7 84 84 SE 17 28 29.90 1012 10 16 0.00 0.00
11:33 am 11:33 Mostly Cloudy 66 19 61 16 83 83 SSE 18 30 29.86 1011 10 16 0.00 0.00
11:56 am 11:56 Mostly Cloudy 68 20 61 16.1 78 78 SSE 21 33 29.89 1012 10 16 0.00 0.00
12:25 pm 12:25 Mostly Sunny 70 21 61 16 73 73 SSE 18 30 29.85 1011 10 16 0.00 0.00
12:56 pm 12:56 Partly Cloudy 70 21.1 60 15.6 71 71 SSE 18 30 29.89 1012 10 16 0.00 0.00
1:11 pm 13:11 Mostly Cloudy 72 22 61 16 69 69 S 20 31 29.84 1011 10 16 0.00 0.00
1:32 pm 13:32 Cloudy 73 23 61 16 65 65 SSE 21 33 29.82 1010 10 16 0.00 0.00
1:56 pm 13:56 Partly Cloudy 75 23.9 60 15.6 60 60 SSE 22 35 29.87 1011 10 16 0.00 0.00
2:56 pm 14:56 Mostly Cloudy 76 24.4 59 15 56 56 SSE 28 44 29.85 1011 10 16 0.00 0.00
3:56 pm 15:56 Mostly Cloudy 77 25 60 15.6 56 56 SSE 23 37 29.84 1010 10 16 0.00 0.00
4:56 pm 16:56 Cloudy 74 23.3 60 15.6 62 62 SSE 22 35 29.83 1010 10 16 0.00 0.00
5:56 pm 17:56 Mostly Cloudy 75 23.9 63 17.2 66 66 SSE 22 35 29.83 1010 10 16 0.00 0.00
6:56 pm 18:56 Mostly Cloudy 74 23.3 62 16.7 67 67 SSE 21 33 29.83 1010 10 16 0.00 0.00
7:56 pm 19:56 Partly Cloudy 72 22.2 61 16.1 68 68 SSE 25 41 29.83 1010 10 16 0.00 0.00
8:56 pm 20:56 Mostly Cloudy 69 20.6 61 16.1 76 76 SSE 20 31 29.85 1011 10 16 0.00 0.00
9:56 pm 21:56 Clear 67 19.4 59 15 76 76 SSE 17 28 29.88 1012 10 16 0.00 0.00
10:56 pm 22:56 Clear 65 18.3 59 15 81 81 SSE 17 28 29.89 1012 10 16 0.00 0.00
11:56 pm 23:56 Clear 63 17.2 59 15 87 87 SSE 21 33 29.90 1013 10 16 0.00 0.00

Powered by AerisWeather